Home   Weather   Dieppe   Past weeks

Flag for Canada Past Weather in Dieppe, New Brunswick, Canada — Yesterday and Last 2 Weeks

Now
25 °F

Passing clouds.


Feels Like: 16 °F
Forecast: N/A
Wind: 8 mph from Northwest

Location: Moncton

Current Time: Dec 6, 2016 at 6:09:17 pm

Latest Report: Dec 6, 2016 at 5:00 pm


Visibility: 15 mi

Pressure: 30.00 "Hg

Humidity: 80%

Dew Point: 19 °F

Location of DieppeLocation

Past Weather in Dieppe — Graph

°F

Dieppe Temperature Yesterday

Maximum temperature yesterday: 25 °F (at 2:00 pm)
Minimum temperature yesterday: 12 °F (at 6:00 am)
Average temperature yesterday: 18 °F

High & Low Weather Summary for the Past Weeks

 TemperatureHumidityPressure
High41 °F (Nov 21, 5:00 pm)100% (Nov 22, 9:50 pm)30.39 "Hg (Nov 22, 9:50 pm)
Low12 °F (Dec 5, 6:00 am)65% (Nov 25, 2:00 pm)29.28 "Hg (Dec 1, 10:00 pm)
Average31 °F88%29.90 "Hg
* Reported Nov 21 5:00 pm — Dec 6 5:00 pm, Dieppe, Weather by CustomWeather, © 2016

Note: Actual official high and low records may vary slightly from our data, if they occured in-between our weather recording intervals... More about our weather records

Advertising

Dieppe Weather History for the Previous 24 Hours

Scroll right to see more
 ConditionsComfort  
Time TempWeatherWind HumidityBarometerVisibility
5:00 pm
Tue, Dec 6
25 °FPassing clouds.8 mph80%30.00 "Hg15 mi
3:00 pm27 °FPartly sunny.8 mph74%30.00 "Hg15 mi
1:00 pm25 °FPartly sunny.8 mph74%29.98 "Hg15 mi
12:00 pm23 °FPassing clouds.7 mph80%29.99 "Hg15 mi
11:00 am19 °FPassing clouds.6 mph86%30.00 "Hg15 mi
10:00 am18 °FPassing clouds.8 mph86%30.01 "Hg15 mi
9:00 am14 °FPartly sunny.7 mph85%29.99 "Hg15 mi
8:00 am16 °FPartly sunny.5 mph86%29.98 "Hg15 mi
7:00 am16 °FPassing clouds.5 mph86%29.97 "Hg15 mi
6:00 am14 °FClear.6 mph92%29.95 "Hg15 mi
5:00 am16 °FPassing clouds.7 mph93%29.94 "Hg15 mi
4:00 am18 °FPassing clouds.3 mph93%29.94 "Hg15 mi
3:00 am18 °FPassing clouds.5 mph93%29.93 "Hg15 mi
2:00 am19 °FPassing clouds.3 mph93%29.93 "Hg15 mi
1:00 am19 °FOvercast.2 mph93%29.93 "Hg15 mi
12:00 am19 °FPassing clouds.3 mph86%29.93 "Hg15 mi
11:00 pm
Mon, Dec 5
18 °FPartly cloudy.6 mph93%29.94 "Hg15 mi
10:00 pm19 °FPartly cloudy.2 mph93%29.94 "Hg15 mi
9:00 pm19 °FPassing clouds.5 mph86%29.95 "Hg15 mi
8:00 pm18 °FPassing clouds.3 mph86%29.95 "Hg15 mi
7:00 pm21 °FPartly cloudy.No wind86%29.96 "Hg15 mi
6:00 pm23 °FPartly cloudy.2 mph80%29.97 "Hg15 mi
Weather by CustomWeather, © 2016

See weather overviewHow to use our weather pages